TimeCST,TemperatureF,Dew PointF,Humidity,Sea Level PressureIn,VisibilityMPH,Wind Direction,Wind SpeedMPH,Gust SpeedMPH,PrecipitationIn,Events,Conditions,WindDirDegrees,DateUTC
12:15 AM,30.0,19.9,66,30.12,10.0,SSE,8.1,-,N/A,,Clear,150,2013-11-14 06:15:00
12:35 AM,29.7,20.1,68,30.11,10.0,SSE,8.1,-,N/A,,Clear,160,2013-11-14 06:35:00
12:55 AM,30.2,19.9,66,30.11,10.0,SSE,6.9,-,N/A,,Clear,160,2013-11-14 06:55:00
1:15 AM,31.8,20.3,62,30.10,10.0,South,5.8,-,N/A,,Clear,170,2013-11-14 07:15:00
1:35 AM,30.4,20.3,66,30.10,10.0,SSE,6.9,-,N/A,,Clear,160,2013-11-14 07:35:00
1:55 AM,28.9,20.1,70,30.09,10.0,SE,5.8,-,N/A,,Clear,140,2013-11-14 07:55:00
2:15 AM,30.2,20.3,67,30.08,10.0,SSE,8.1,-,N/A,,Clear,150,2013-11-14 08:15:00
2:35 AM,30.2,20.3,67,30.07,10.0,SSE,8.1,-,N/A,,Clear,150,2013-11-14 08:35:00
2:55 AM,30.2,20.3,67,30.07,10.0,SSE,8.1,-,N/A,,Clear,150,2013-11-14 08:55:00
3:15 AM,30.2,20.3,67,30.07,10.0,SSE,5.8,-,N/A,,Clear,160,2013-11-14 09:15:00
3:35 AM,29.8,20.7,69,30.06,10.0,SSE,8.1,-,N/A,,Clear,160,2013-11-14 09:35:00
3:55 AM,29.8,21.0,70,30.05,10.0,SSE,5.8,-,N/A,,Clear,160,2013-11-14 09:55:00
4:15 AM,30.9,21.0,67,30.05,10.0,SSE,8.1,-,N/A,,Clear,160,2013-11-14 10:15:00
4:35 AM,29.8,21.2,70,30.04,10.0,South,6.9,-,N/A,,Clear,170,2013-11-14 10:35:00
4:55 AM,29.5,21.2,71,30.04,10.0,South,8.1,-,N/A,,Clear,170,2013-11-14 10:55:00
5:15 AM,29.3,21.4,72,30.04,10.0,South,6.9,-,N/A,,Clear,180,2013-11-14 11:15:00
5:35 AM,29.7,21.9,73,30.04,10.0,South,8.1,-,N/A,,Clear,170,2013-11-14 11:35:00
5:55 AM,29.8,21.6,71,30.03,10.0,SSE,6.9,-,N/A,,Clear,160,2013-11-14 11:55:00
6:15 AM,30.2,21.6,70,30.03,10.0,SSE,5.8,-,N/A,,Clear,160,2013-11-14 12:15:00
6:35 AM,30.0,21.6,71,30.03,10.0,SSE,5.8,-,N/A,,Clear,160,2013-11-14 12:35:00
6:55 AM,30.4,21.9,71,30.04,10.0,South,4.6,-,N/A,,Clear,180,2013-11-14 12:55:00
7:15 AM,31.3,22.8,71,30.04,10.0,South,6.9,-,N/A,,Clear,170,2013-11-14 13:15:00
7:35 AM,33.1,23.5,68,30.03,10.0,South,8.1,-,N/A,,Clear,170,2013-11-14 13:35:00
7:55 AM,35.1,23.9,64,30.03,10.0,South,8.1,-,N/A,,Clear,180,2013-11-14 13:55:00
8:15 AM,37.4,24.3,59,30.03,10.0,South,9.2,-,N/A,,Clear,190,2013-11-14 14:15:00
8:35 AM,39.2,23.9,54,30.02,10.0,SSW,12.7,-,N/A,,Clear,200,2013-11-14 14:35:00
8:55 AM,40.3,24.1,52,30.02,10.0,SSW,13.8,18.4,N/A,,Clear,200,2013-11-14 14:55:00
9:15 AM,41.7,23.7,49,30.02,10.0,SSW,11.5,16.1,N/A,,Clear,210,2013-11-14 15:15:00
9:35 AM,43.2,24.1,47,30.02,10.0,SW,10.4,-,N/A,,Clear,220,2013-11-14 15:35:00
9:55 AM,44.2,24.1,45,30.02,10.0,SSW,11.5,17.3,N/A,,Clear,210,2013-11-14 15:55:00
10:15 AM,44.6,23.9,44,30.01,10.0,SW,12.7,17.3,N/A,,Clear,220,2013-11-14 16:15:00
10:35 AM,45.0,24.3,44,30.01,10.0,SW,13.8,17.3,N/A,,Clear,230,2013-11-14 16:35:00
10:55 AM,45.5,24.8,44,30.00,10.0,SW,11.5,16.1,N/A,,Clear,220,2013-11-14 16:55:00
11:15 AM,46.4,25.0,43,29.99,10.0,SW,11.5,16.1,N/A,,Clear,220,2013-11-14 17:15:00
11:35 AM,47.8,24.8,41,29.98,10.0,SW,15.0,18.4,N/A,,Clear,230,2013-11-14 17:35:00
11:55 AM,49.1,24.8,39,29.97,10.0,SW,13.8,-,N/A,,Clear,230,2013-11-14 17:55:00
12:15 PM,48.6,24.8,39,29.96,10.0,SW,13.8,-,N/A,,Clear,220,2013-11-14 18:15:00
12:35 PM,49.1,25.2,39,29.95,10.0,SW,12.7,-,N/A,,Clear,230,2013-11-14 18:35:00
12:55 PM,49.1,26.1,41,29.95,10.0,SW,15.0,18.4,N/A,,Clear,220,2013-11-14 18:55:00
1:15 PM,49.6,26.1,40,29.94,10.0,SSW,11.5,18.4,N/A,,Clear,210,2013-11-14 19:15:00
1:35 PM,49.3,25.5,40,29.93,10.0,SSW,9.2,19.6,N/A,,Clear,210,2013-11-14 19:35:00
1:55 PM,50.2,25.7,39,29.92,10.0,SW,11.5,-,N/A,,Clear,220,2013-11-14 19:55:00
2:15 PM,50.9,25.9,38,29.91,10.0,SSW,13.8,-,N/A,,Clear,210,2013-11-14 20:15:00
2:35 PM,50.7,25.9,38,29.91,10.0,SW,10.4,-,N/A,,Clear,220,2013-11-14 20:35:00
2:55 PM,50.7,26.1,38,29.91,10.0,SW,9.2,-,N/A,,Clear,220,2013-11-14 20:55:00
3:15 PM,50.0,27.3,41,29.92,10.0,WSW,8.1,-,N/A,,Clear,240,2013-11-14 21:15:00
3:35 PM,49.6,27.9,43,29.92,10.0,WSW,5.8,-,N/A,,Clear,250,2013-11-14 21:35:00
3:55 PM,49.5,27.3,42,29.92,10.0,SW,5.8,-,N/A,,Clear,220,2013-11-14 21:55:00
4:15 PM,49.8,26.6,41,29.92,10.0,SW,9.2,-,N/A,,Clear,220,2013-11-14 22:15:00
4:35 PM,48.6,27.1,43,29.93,10.0,South,4.6,-,N/A,,Clear,190,2013-11-14 22:35:00
4:55 PM,46.2,28.4,50,29.93,10.0,South,4.6,-,N/A,,Clear,180,2013-11-14 22:55:00
5:15 PM,43.2,29.5,59,29.93,10.0,South,5.8,-,N/A,,Clear,170,2013-11-14 23:15:00
5:35 PM,42.6,30.0,61,29.93,10.0,South,4.6,-,N/A,,Clear,190,2013-11-14 23:35:00
5:55 PM,43.2,28.9,57,29.93,10.0,South,6.9,-,N/A,,Clear,180,2013-11-14 23:55:00
6:15 PM,42.1,28.9,60,29.93,10.0,SSW,3.5,-,N/A,,Clear,200,2013-11-15 00:15:00
6:35 PM,42.6,28.6,58,29.93,10.0,South,3.5,-,N/A,,Clear,190,2013-11-15 00:35:00
6:55 PM,38.3,29.8,72,29.94,10.0,SSE,3.5,-,N/A,,Clear,150,2013-11-15 00:55:00
7:15 PM,37.4,29.3,73,29.94,10.0,SSE,4.6,-,N/A,,Clear,160,2013-11-15 01:15:00
7:35 PM,36.9,28.9,73,29.94,10.0,South,5.8,-,N/A,,Clear,180,2013-11-15 01:35:00
7:55 PM,35.8,28.4,75,29.94,10.0,South,4.6,-,N/A,,Scattered Clouds,170,2013-11-15 01:55:00
8:15 PM,36.3,29.5,76,29.94,10.0,SSE,4.6,-,N/A,,Mostly Cloudy,150,2013-11-15 02:15:00
8:35 PM,36.9,30.0,76,29.94,10.0,SSE,4.6,-,N/A,,Mostly Cloudy,160,2013-11-15 02:35:00
8:55 PM,37.6,30.2,75,29.94,10.0,SSE,5.8,-,N/A,,Mostly Cloudy,150,2013-11-15 02:55:00
9:15 PM,38.7,30.0,71,29.94,10.0,SSE,5.8,-,N/A,,Overcast,160,2013-11-15 03:15:00
9:35 PM,39.2,29.3,68,29.93,10.0,SSE,8.1,-,N/A,,Mostly Cloudy,150,2013-11-15 03:35:00
9:55 PM,38.7,29.3,69,29.93,10.0,SSE,5.8,-,N/A,,Overcast,150,2013-11-15 03:55:00
10:15 PM,39.2,29.8,69,29.93,10.0,SSE,8.1,-,N/A,,Overcast,160,2013-11-15 04:15:00
10:35 PM,39.4,30.2,70,29.92,10.0,South,8.1,-,N/A,,Overcast,170,2013-11-15 04:35:00
10:55 PM,39.9,29.5,66,29.92,10.0,South,6.9,-,N/A,,Overcast,180,2013-11-15 04:55:00
11:15 PM,40.6,28.9,63,29.92,10.0,South,9.2,-,N/A,,Mostly Cloudy,190,2013-11-15 05:15:00
11:35 PM,43.3,28.4,56,29.92,10.0,SSW,10.4,-,N/A,,Scattered Clouds,210,2013-11-15 05:35:00
11:55 PM,45.7,26.1,46,29.92,10.0,SW,11.5,-,N/A,,Mostly Cloudy,220,2013-11-15 05:55:00